QPF
0.08 0.13 0.18 0.18 0.17 0.14 0.11 0.09 0.07 0.06 0.06 0.05 0.05 0.07 0.09 0.09 0.10 0.11 0.11 0.13 0.16 0.17 0.18 0.20 0.16 0.18 0.21 0.15 0.13 0.11 0.09 0.11 0.11 0.10 0.12 0.20 0.34 0.28 0.19 0.14 0.13 0.12 0.12
0.09 0.13 0.16 0.16 0.16 0.15 0.11 0.08 0.07 0.04 0.05 0.05 0.06 0.07 0.08 0.10 0.11 0.12 0.13 0.18 0.22 0.19 0.16 0.16 0.13 0.13 0.18 0.15 0.13 0.12 0.09 0.09 0.09 0.10 0.15 0.24 0.37 0.33 0.23 0.17 0.14 0.11 0.12
0.06 0.09 0.13 0.16 0.17 0.17 0.12 0.09 0.07 0.03 0.03 0.05 0.05 0.06 0.07 0.08 0.09 0.11 0.17 0.27 0.23 0.15 0.13 0.12 0.11 0.14 0.16 0.14 0.11 0.10 0.09 0.09 0.09 0.10 0.11 0.18 0.27 0.26 0.19 0.18 0.17 0.17 0.14
0.05 0.08 0.14 0.16 0.19 0.18 0.13 0.09 0.07 0.05 0.05 0.05 0.04 0.05 0.06 0.07 0.10 0.17 0.26 0.29 0.19 0.11 0.08 0.08 0.09 0.11 0.12 0.14 0.12 0.08 0.09 0.10 0.09 0.08 0.07 0.07 0.13 0.15 0.13 0.14 0.14 0.11 0.09
0.04 0.07 0.15 0.17 0.20 0.16 0.12 0.10 0.08 0.06 0.06 0.06 0.05 0.05 0.06 0.08 0.12 0.21 0.26 0.18 0.12 0.08 0.06 0.06 0.07 0.09 0.10 0.12 0.11 0.09 0.08 0.09 0.09 0.08 0.07 0.08 0.09 0.11 0.10 0.09 0.08 0.06 0.06
0.06 0.09 0.13 0.15 0.17 0.15 0.14 0.13 0.08 0.08 0.07 0.05 0.05 0.06 0.09 0.10 0.11 0.14 0.11 0.11 0.10 0.07 0.06 0.06 0.07 0.09 0.13 0.10 0.09 0.08 0.08 0.12 0.13 0.09 0.09 0.11 0.11 0.10 0.09 0.11 0.10 0.10 0.07
0.09 0.11 0.12 0.14 0.14 0.11 0.11 0.11 0.08 0.06 0.06 0.05 0.06 0.07 0.07 0.06 0.07 0.08 0.07 0.09 0.10 0.08 0.07 0.08 0.07 0.10 0.16 0.10 0.08 0.08 0.10 0.12 0.10 0.08 0.10 0.14 0.15 0.12 0.13 0.16 0.15 0.14 0.13
0.13 0.13 0.13 0.12 0.11 0.10 0.08 0.06 0.05 0.05 0.05 0.04 0.04 0.04 0.04 0.04 0.05 0.09 0.10 0.10 0.09 0.10 0.10 0.10 0.10 0.08 0.11 0.11 0.10 0.10 0.11 0.10 0.09 0.07 0.08 0.11 0.14 0.15 0.20 0.19 0.15 0.14 0.14
0.15 0.15 0.12 0.09 0.09 0.09 0.06 0.05 0.04 0.04 0.03 0.04 0.03 0.03 0.03 0.03 0.03 0.05 0.07 0.07 0.10 0.12 0.11 0.12 0.13 0.12 0.11 0.13 0.11 0.13 0.15 0.14 0.11 0.08 0.06 0.08 0.10 0.15 0.29 0.20 0.12 0.11 0.14
0.11 0.12 0.10 0.07 0.06 0.08 0.07 0.04 0.03 0.03 0.03 0.04 0.04 0.03 0.03 0.04 0.06 0.07 0.05 0.06 0.08 0.09 0.09 0.15 0.26 0.20 0.15 0.15 0.16 0.21 0.22 0.18 0.09 0.06 0.06 0.06 0.05 0.12 0.28 0.24 0.14 0.12 0.14
0.09 0.08 0.06 0.05 0.04 0.06 0.07 0.04 0.04 0.04 0.04 0.04 0.06 0.05 0.04 0.05 0.07 0.07 0.06 0.08 0.09 0.09 0.08 0.15 0.27 0.20 0.17 0.18 0.18 0.20 0.22 0.18 0.08 0.04 0.06 0.06 0.05 0.08 0.12 0.12 0.11 0.13 0.18
0.04 0.03 0.03 0.03 0.03 0.05 0.05 0.05 0.05 0.04 0.03 0.03 0.05 0.06 0.06 0.05 0.05 0.05 0.05 0.08 0.11 0.09 0.08 0.10 0.16 0.13 0.12 0.15 0.14 0.14 0.16 0.15 0.07 0.04 0.04 0.05 0.06 0.07 0.07 0.07 0.08 0.14 0.23
0.01 0.01 0.01 0.01 0.02 0.02 0.04 0.03 0.03 0.04 0.04 0.04 0.05 0.05 0.05 0.06 0.06 0.06 0.06 0.07 0.11 0.09 0.08 0.06 0.07 0.07 0.07 0.10 0.11 0.09 0.09 0.10 0.07 0.04 0.04 0.04 0.06 0.08 0.08 0.08 0.09 0.11 0.15
0.01 0.01 0.01 0.01 0.01 0.02 0.02 0.02 0.02 0.03 0.03 0.04 0.04 0.04 0.05 0.06 0.07 0.07 0.06 0.06 0.07 0.08 0.09 0.07 0.07 0.08 0.07 0.06 0.07 0.06 0.05 0.06 0.05 0.05 0.06 0.05 0.06 0.09 0.07 0.07 0.09 0.08 0.11
0.01 0.01 0.01 0.01 0.02 0.02 0.02 0.02 0.02 0.04 0.03 0.04 0.06 0.08 0.06 0.08 0.09 0.07 0.06 0.06 0.06 0.06 0.05 0.07 0.06 0.08 0.08 0.09 0.08 0.04 0.03 0.04 0.05 0.06 0.08 0.08 0.08 0.07 0.07 0.08 0.09 0.08 0.11
0.01 0.01 0.01 0.01 0.02 0.02 0.02 0.02 0.04 0.04 0.04 0.06 0.11 0.10 0.06 0.07 0.09 0.09 0.08 0.05 0.05 0.05 0.04 0.06 0.08 0.09 0.08 0.09 0.10 0.09 0.06 0.05 0.07 0.11 0.13 0.15 0.12 0.09 0.08 0.08 0.10 0.12 0.13
0.01 0.01 0.01 0.01 0.01 0.01 0.02 0.02 0.04 0.04 0.04 0.06 0.07 0.07 0.06 0.06 0.08 0.08 0.06 0.05 0.06 0.06 0.06 0.06 0.09 0.08 0.06 0.06 0.08 0.09 0.07 0.06 0.07 0.09 0.10 0.13 0.11 0.08 0.07 0.09 0.11 0.16 0.17
0.01 0.02 0.02 0.01 0.01 0.01 0.02 0.03 0.04 0.05 0.05 0.06 0.07 0.08 0.06 0.06 0.06 0.07 0.05 0.05 0.06 0.06 0.06 0.07 0.08 0.08 0.07 0.07 0.07 0.06 0.05 0.06 0.05 0.04 0.06 0.07 0.08 0.08 0.08 0.08 0.09 0.11 0.11
0.01 0.01 0.02 0.02 0.02 0.02 0.02 0.04 0.05 0.05 0.05 0.06 0.07 0.08 0.07 0.06 0.07 0.08 0.07 0.06 0.07 0.07 0.08 0.07 0.08 0.09 0.08 0.07 0.05 0.04 0.04 0.05 0.06 0.04 0.03 0.05 0.06 0.07 0.08 0.06 0.05 0.06 0.08
0.01 0.01 0.03 0.03 0.04 0.03 0.03 0.04 0.05 0.05 0.05 0.06 0.08 0.08 0.09 0.09 0.08 0.08 0.08 0.07 0.07 0.07 0.08 0.08 0.10 0.11 0.08 0.07 0.04 0.03 0.04 0.05 0.07 0.05 0.04 0.04 0.04 0.04 0.05 0.05 0.07 0.06 0.05
0.01 0.01 0.03 0.06 0.05 0.05 0.04 0.04 0.05 0.05 0.05 0.06 0.06 0.07 0.08 0.10 0.07 0.06 0.06 0.06 0.06 0.05 0.05 0.07 0.08 0.08 0.07 0.05 0.06 0.05 0.06 0.05 0.05 0.04 0.03 0.03 0.02 0.03 0.05 0.06 0.07 0.06 0.05
0.01 0.02 0.03 0.05 0.06 0.06 0.04 0.04 0.04 0.03 0.03 0.05 0.07 0.09 0.08 0.08 0.06 0.05 0.06 0.07 0.07 0.06 0.06 0.07 0.07 0.07 0.07 0.06 0.07 0.07 0.09 0.09 0.06 0.03 0.03 0.03 0.03 0.03 0.04 0.05 0.05 0.05 0.05
0.01 0.01 0.02 0.03 0.08 0.09 0.05 0.03 0.03 0.04 0.04 0.06 0.07 0.11 0.08 0.07 0.06 0.06 0.07 0.07 0.06 0.05 0.07 0.08 0.06 0.08 0.08 0.06 0.07 0.07 0.07 0.09 0.07 0.04 0.03 0.03 0.03 0.03 0.05 0.05 0.04 0.03 0.04
0.01 0.01 0.01 0.02 0.06 0.07 0.06 0.04 0.03 0.04 0.05 0.05 0.06 0.09 0.07 0.06 0.06 0.06 0.07 0.06 0.06 0.05 0.06 0.06 0.06 0.07 0.08 0.06 0.06 0.06 0.05 0.06 0.06 0.05 0.04 0.03 0.02 0.03 0.04 0.04 0.04 0.04 0.04
0.01 0.01 0.01 0.01 0.04 0.04 0.04 0.05 0.06 0.05 0.05 0.04 0.04 0.06 0.07 0.06 0.06 0.06 0.07 0.06 0.06 0.04 0.04 0.04 0.07 0.08 0.06 0.04 0.04 0.03 0.04 0.05 0.05 0.05 0.04 0.03 0.03 0.03 0.04 0.04 0.04 0.04 0.04
0.01 0.01 0.00 0.01 0.03 0.03 0.06 0.05 0.07 0.09 0.07 0.05 0.05 0.06 0.06 0.07 0.11 0.10 0.06 0.05 0.06 0.06 0.06 0.06 0.07 0.08 0.06 0.04 0.04 0.04 0.05 0.06 0.06 0.06 0.05 0.04 0.03 0.03 0.04 0.03 0.04 0.04 0.04
MSLP
1009.81 1009.55 1009.40 1009.32 1009.23 1009.08 1008.79 1008.37 1007.83 1007.20 1006.53 1005.81 1005.03 1004.12 1003.00 1001.60 999.93 998.04 996.10 994.33 992.97 992.23 992.23 992.98 994.39 996.25 998.32 1000.33 1002.11 1003.55 1004.67 1005.53 1006.25 1006.93 1007.64 1008.41 1009.20 1009.95 1010.60 1011.10 1011.45 1011.68 1011.84
1009.97 1009.74 1009.60 1009.52 1009.43 1009.27 1008.99 1008.57 1008.03 1007.42 1006.79 1006.15 1005.49 1004.75 1003.87 1002.78 1001.46 999.95 998.39 996.94 995.82 995.20 995.19 995.81 996.97 998.50 1000.19 1001.83 1003.27 1004.44 1005.36 1006.08 1006.71 1007.35 1008.03 1008.78 1009.54 1010.26 1010.87 1011.34 1011.66 1011.87 1012.03
1010.07 1009.87 1009.76 1009.69 1009.61 1009.46 1009.18 1008.78 1008.27 1007.69 1007.11 1006.55 1006.01 1005.45 1004.81 1004.02 1003.05 1001.93 1000.74 999.63 998.75 998.26 998.24 998.72 999.61 1000.79 1002.09 1003.35 1004.45 1005.34 1006.05 1006.63 1007.18 1007.77 1008.43 1009.14 1009.87 1010.54 1011.10 1011.53 1011.83 1012.03 1012.20
1010.08 1009.92 1009.84 1009.80 1009.75 1009.62 1009.38 1009.01 1008.54 1008.02 1007.50 1007.02 1006.59 1006.19 1005.75 1005.22 1004.57 1003.79 1002.94 1002.13 1001.49 1001.11 1001.09 1001.43 1002.08 1002.94 1003.88 1004.77 1005.55 1006.19 1006.71 1007.18 1007.65 1008.20 1008.82 1009.49 1010.17 1010.79 1011.31 1011.70 1011.98 1012.18 1012.37
1010.00 1009.88 1009.84 1009.84 1009.82 1009.74 1009.55 1009.24 1008.83 1008.38 1007.92 1007.52 1007.18 1006.89 1006.62 1006.29 1005.89 1005.39 1004.83 1004.28 1003.83 1003.57 1003.54 1003.78 1004.22 1004.81 1005.44 1006.03 1006.55 1006.97 1007.34 1007.70 1008.12 1008.62 1009.21 1009.84 1010.48 1011.05 1011.52 1011.87 1012.14 1012.35 1012.57
1009.86 1009.78 1009.76 1009.79 1009.82 1009.79 1009.67 1009.44 1009.11 1008.73 1008.34 1008.01 1007.74 1007.53 1007.36 1007.18 1006.95 1006.66 1006.32 1005.97 1005.69 1005.52 1005.51 1005.67 1005.96 1006.34 1006.74 1007.10 1007.40 1007.67 1007.92 1008.21 1008.58 1009.05 1009.60 1010.20 1010.79 1011.31 1011.75 1012.08 1012.34 1012.57 1012.81
1009.71 1009.63 1009.63 1009.69 1009.76 1009.78 1009.73 1009.57 1009.32 1009.02 1008.70 1008.42 1008.21 1008.06 1007.95 1007.86 1007.75 1007.60 1007.41 1007.22 1007.06 1006.98 1006.99 1007.11 1007.30 1007.53 1007.77 1007.96 1008.13 1008.28 1008.45 1008.68 1009.02 1009.46 1009.99 1010.56 1011.11 1011.61 1012.01 1012.33 1012.59 1012.83 1013.10
1009.61 1009.51 1009.51 1009.57 1009.66 1009.72 1009.71 1009.62 1009.44 1009.20 1008.95 1008.72 1008.55 1008.43 1008.37 1008.33 1008.28 1008.22 1008.14 1008.06 1008.00 1007.98 1008.03 1008.13 1008.27 1008.42 1008.55 1008.64 1008.71 1008.79 1008.91 1009.11 1009.43 1009.85 1010.36 1010.91 1011.45 1011.92 1012.31 1012.62 1012.88 1013.13 1013.40
1009.59 1009.46 1009.43 1009.48 1009.56 1009.63 1009.65 1009.59 1009.46 1009.27 1009.07 1008.89 1008.75 1008.66 1008.62 1008.61 1008.60 1008.60 1008.59 1008.58 1008.59 1008.63 1008.71 1008.82 1008.94 1009.04 1009.11 1009.14 1009.16 1009.19 1009.28 1009.46 1009.77 1010.19 1010.69 1011.23 1011.76 1012.23 1012.61 1012.93 1013.19 1013.43 1013.70
1009.68 1009.53 1009.46 1009.47 1009.52 1009.57 1009.57 1009.52 1009.41 1009.26 1009.09 1008.94 1008.83 1008.76 1008.74 1008.75 1008.78 1008.81 1008.84 1008.88 1008.94 1009.03 1009.13 1009.26 1009.37 1009.45 1009.48 1009.48 1009.47 1009.47 1009.54 1009.72 1010.01 1010.43 1010.94 1011.48 1012.02 1012.49 1012.89 1013.21 1013.47 1013.70 1013.93
1009.89 1009.71 1009.61 1009.58 1009.58 1009.58 1009.55 1009.47 1009.36 1009.21 1009.06 1008.93 1008.84 1008.80 1008.80 1008.83 1008.87 1008.92 1008.98 1009.05 1009.14 1009.25 1009.38 1009.51 1009.61 1009.68 1009.70 1009.68 1009.65 1009.64 1009.70 1009.86 1010.16 1010.58 1011.09 1011.64 1012.19 1012.69 1013.10 1013.43 1013.68 1013.89 1014.09
1010.18 1010.00 1009.88 1009.81 1009.75 1009.70 1009.61 1009.50 1009.35 1009.19 1009.05 1008.93 1008.87 1008.84 1008.86 1008.91 1008.96 1009.02 1009.09 1009.17 1009.27 1009.38 1009.51 1009.63 1009.74 1009.80 1009.81 1009.78 1009.73 1009.71 1009.76 1009.92 1010.20 1010.62 1011.14 1011.70 1012.27 1012.78 1013.21 1013.54 1013.79 1013.98 1014.14
1010.49 1010.34 1010.23 1010.13 1010.04 1009.93 1009.79 1009.63 1009.44 1009.27 1009.12 1009.02 1008.96 1008.96 1008.99 1009.04 1009.09 1009.15 1009.21 1009.28 1009.36 1009.47 1009.58 1009.69 1009.79 1009.84 1009.84 1009.81 1009.75 1009.73 1009.77 1009.91 1010.19 1010.60 1011.11 1011.67 1012.24 1012.76 1013.20 1013.55 1013.79 1013.97 1014.10
1010.78 1010.68 1010.59 1010.50 1010.39 1010.25 1010.07 1009.87 1009.66 1009.47 1009.32 1009.22 1009.17 1009.17 1009.21 1009.26 1009.30 1009.34 1009.38 1009.42 1009.47 1009.55 1009.64 1009.73 1009.81 1009.86 1009.86 1009.83 1009.78 1009.75 1009.78 1009.91 1010.17 1010.55 1011.04 1011.58 1012.14 1012.66 1013.09 1013.44 1013.69 1013.86 1013.99
1011.00 1010.97 1010.93 1010.86 1010.75 1010.60 1010.41 1010.20 1009.98 1009.79 1009.64 1009.54 1009.50 1009.50 1009.53 1009.56 1009.59 1009.60 1009.59 1009.59 1009.61 1009.64 1009.70 1009.78 1009.85 1009.90 1009.92 1009.90 1009.86 1009.84 1009.87 1009.98 1010.20 1010.54 1010.98 1011.48 1012.00 1012.48 1012.91 1013.24 1013.49 1013.67 1013.81
1011.12 1011.15 1011.17 1011.14 1011.07 1010.94 1010.77 1010.57 1010.37 1010.19 1010.05 1009.96 1009.92 1009.92 1009.93 1009.93 1009.92 1009.89 1009.84 1009.80 1009.77 1009.77 1009.81 1009.87 1009.95 1010.01 1010.05 1010.06 1010.05 1010.04 1010.06 1010.15 1010.33 1010.61 1010.98 1011.41 1011.86 1012.30 1012.68 1013.00 1013.25 1013.44 1013.61
1011.14 1011.23 1011.30 1011.33 1011.30 1011.21 1011.08 1010.93 1010.76 1010.61 1010.49 1010.42 1010.38 1010.36 1010.35 1010.32 1010.28 1010.20 1010.12 1010.03 1009.97 1009.94 1009.96 1010.02 1010.11 1010.20 1010.27 1010.32 1010.34 1010.35 1010.38 1010.45 1010.58 1010.79 1011.08 1011.41 1011.78 1012.14 1012.47 1012.75 1012.99 1013.20 1013.39
1011.08 1011.22 1011.33 1011.40 1011.43 1011.40 1011.33 1011.23 1011.11 1011.01 1010.92 1010.86 1010.81 1010.78 1010.75 1010.70 1010.62 1010.51 1010.39 1010.28 1010.19 1010.15 1010.17 1010.24 1010.34 1010.46 1010.57 1010.66 1010.73 1010.77 1010.80 1010.85 1010.94 1011.08 1011.28 1011.52 1011.78 1012.05 1012.31 1012.54 1012.76 1012.97 1013.19
1010.98 1011.14 1011.28 1011.39 1011.47 1011.50 1011.49 1011.46 1011.40 1011.34 1011.29 1011.24 1011.20 1011.16 1011.10 1011.03 1010.93 1010.81 1010.67 1010.55 1010.46 1010.42 1010.43 1010.51 1010.63 1010.77 1010.92 1011.05 1011.15 1011.23 1011.28 1011.32 1011.38 1011.46 1011.57 1011.72 1011.88 1012.06 1012.24 1012.41 1012.60 1012.79 1013.02
1010.85 1011.02 1011.18 1011.33 1011.45 1011.54 1011.60 1011.63 1011.63 1011.62 1011.59 1011.56 1011.52 1011.48 1011.41 1011.33 1011.22 1011.10 1010.97 1010.86 1010.77 1010.74 1010.76 1010.84 1010.96 1011.12 1011.28 1011.44 1011.57 1011.67 1011.74 1011.79 1011.83 1011.88 1011.93 1012.00 1012.08 1012.18 1012.28 1012.40 1012.53 1012.70 1012.91
1010.69 1010.87 1011.05 1011.23 1011.40 1011.54 1011.67 1011.76 1011.82 1011.84 1011.85 1011.83 1011.79 1011.74 1011.68 1011.61 1011.52 1011.42 1011.31 1011.22 1011.16 1011.13 1011.14 1011.21 1011.32 1011.47 1011.63 1011.79 1011.94 1012.06 1012.15 1012.21 1012.26 1012.29 1012.32 1012.34 1012.37 1012.40 1012.45 1012.51 1012.60 1012.72 1012.89
1010.47 1010.68 1010.89 1011.11 1011.33 1011.53 1011.71 1011.86 1011.97 1012.03 1012.06 1012.05 1012.02 1011.98 1011.93 1011.88 1011.82 1011.76 1011.71 1011.65 1011.61 1011.59 1011.59 1011.63 1011.70 1011.81 1011.94 1012.07 1012.21 1012.34 1012.46 1012.55 1012.62 1012.67 1012.70 1012.72 1012.72 1012.73 1012.73 1012.75 1012.79 1012.87 1012.99
1010.16 1010.41 1010.67 1010.94 1011.21 1011.48 1011.72 1011.92 1012.08 1012.18 1012.23 1012.24 1012.22 1012.20 1012.17 1012.16 1012.15 1012.14 1012.14 1012.13 1012.12 1012.10 1012.08 1012.08 1012.10 1012.14 1012.20 1012.30 1012.41 1012.54 1012.67 1012.79 1012.90 1012.99 1013.05 1013.09 1013.11 1013.11 1013.10 1013.10 1013.11 1013.15 1013.22
1009.71 1010.02 1010.34 1010.68 1011.02 1011.36 1011.66 1011.92 1012.12 1012.26 1012.34 1012.36 1012.37 1012.37 1012.38 1012.41 1012.46 1012.52 1012.58 1012.62 1012.64 1012.63 1012.60 1012.55 1012.49 1012.46 1012.45 1012.48 1012.55 1012.66 1012.80 1012.95 1013.11 1013.24 1013.36 1013.44 1013.49 1013.51 1013.51 1013.51 1013.50 1013.52 1013.56
1009.13 1009.51 1009.89 1010.30 1010.71 1011.12 1011.49 1011.81 1012.07 1012.24 1012.35 1012.40 1012.43 1012.46 1012.51 1012.59 1012.70 1012.83 1012.96 1013.07 1013.13 1013.14 1013.09 1013.00 1012.89 1012.78 1012.70 1012.67 1012.69 1012.77 1012.91 1013.08 1013.26 1013.45 1013.61 1013.73 1013.82 1013.87 1013.89 1013.90 1013.90 1013.91 1013.94
1008.44 1008.87 1009.31 1009.78 1010.26 1010.73 1011.17 1011.55 1011.86 1012.09 1012.23 1012.31 1012.37 1012.43 1012.52 1012.66 1012.83 1013.03 1013.23 1013.40 1013.52 1013.56 1013.52 1013.42 1013.28 1013.12 1012.98 1012.89 1012.87 1012.92 1013.03 1013.20 1013.40 1013.61 1013.79 1013.95 1014.07 1014.14 1014.19 1014.21 1014.23 1014.26 1014.30
Thickness
5797 5798 5791 5791 5791 5791 5791 5791 5790 5789 5789 5788 5787 5786 5786 5786 5785 5785 5784 5783 5782 5782 5781 5779 5778 5776 5775 5773 5772 5771 5769 5767 5766 5765 5764 5762 5760 5758 5757 5756 5755 5754 5751
5799 5797 5790 5790 5790 5789 5789 5789 5788 5788 5787 5787 5786 5785 5785 5785 5785 5785 5784 5782 5781 5781 5780 5778 5777 5776 5774 5773 5771 5770 5768 5767 5766 5764 5763 5761 5760 5758 5756 5755 5755 5754 5750
5799 5797 5792 5789 5788 5788 5788 5787 5787 5786 5786 5785 5785 5784 5784 5784 5784 5784 5782 5781 5780 5779 5778 5778 5777 5775 5774 5772 5770 5769 5767 5766 5765 5764 5763 5763 5761 5757 5755 5754 5752 5751 5749
5799 5797 5792 5788 5787 5786 5786 5786 5785 5785 5784 5784 5784 5783 5782 5782 5782 5782 5781 5779 5779 5778 5777 5777 5776 5774 5773 5771 5770 5768 5767 5765 5765 5764 5765 5764 5761 5756 5754 5752 5750 5749 5747
5798 5795 5791 5788 5786 5785 5785 5784 5784 5783 5783 5783 5782 5781 5780 5780 5780 5779 5779 5778 5777 5777 5776 5775 5774 5773 5772 5771 5769 5767 5766 5765 5765 5765 5765 5763 5760 5755 5753 5751 5749 5748 5747
5796 5795 5791 5787 5785 5784 5783 5783 5782 5782 5782 5782 5781 5779 5779 5778 5779 5778 5777 5776 5776 5775 5775 5774 5773 5772 5771 5770 5768 5767 5765 5765 5765 5767 5765 5763 5760 5755 5752 5751 5749 5748 5746
5796 5794 5791 5785 5784 5783 5782 5782 5781 5781 5781 5780 5779 5778 5777 5776 5776 5776 5775 5775 5774 5773 5773 5772 5771 5770 5770 5769 5767 5766 5765 5765 5767 5767 5765 5763 5759 5754 5752 5750 5749 5747 5746
5795 5793 5790 5785 5783 5782 5782 5781 5781 5780 5780 5779 5778 5777 5776 5775 5775 5774 5774 5773 5773 5772 5771 5770 5769 5769 5768 5767 5765 5765 5764 5765 5767 5767 5764 5761 5756 5753 5751 5750 5748 5747 5746
5795 5793 5792 5789 5785 5783 5782 5781 5780 5780 5779 5778 5777 5776 5776 5775 5774 5773 5772 5772 5771 5770 5769 5768 5767 5767 5766 5765 5764 5763 5763 5764 5767 5766 5764 5760 5755 5753 5751 5749 5748 5746 5745
5794 5793 5791 5790 5787 5786 5784 5781 5780 5779 5778 5778 5777 5776 5775 5775 5774 5773 5772 5771 5770 5769 5768 5767 5766 5765 5764 5763 5763 5763 5763 5764 5767 5765 5763 5758 5754 5752 5750 5748 5747 5745 5744
5789 5791 5791 5790 5788 5787 5786 5783 5782 5780 5779 5779 5778 5776 5776 5777 5777 5774 5771 5769 5768 5767 5766 5765 5764 5764 5763 5762 5762 5762 5762 5766 5765 5764 5761 5756 5753 5751 5748 5747 5746 5745 5743
5786 5788 5790 5789 5788 5787 5786 5784 5784 5783 5781 5780 5778 5778 5778 5777 5776 5775 5770 5768 5767 5766 5765 5764 5763 5763 5764 5764 5763 5762 5764 5765 5765 5763 5759 5754 5752 5749 5748 5746 5745 5744 5742
5787 5787 5788 5787 5786 5786 5785 5784 5784 5783 5781 5780 5778 5777 5776 5776 5776 5775 5773 5771 5769 5768 5767 5765 5764 5765 5765 5765 5764 5764 5765 5765 5764 5762 5758 5753 5751 5749 5747 5745 5745 5743 5741
5787 5787 5788 5787 5785 5783 5783 5784 5784 5783 5781 5780 5777 5776 5776 5775 5775 5774 5772 5771 5770 5769 5767 5766 5764 5764 5763 5763 5763 5763 5763 5763 5762 5760 5756 5752 5750 5748 5746 5745 5744 5743 5741
5786 5786 5786 5785 5783 5782 5781 5781 5783 5782 5781 5779 5776 5775 5775 5775 5774 5774 5771 5770 5770 5769 5767 5765 5764 5763 5763 5762 5762 5762 5762 5761 5760 5758 5755 5752 5749 5747 5746 5744 5743 5742 5740
5786 5786 5786 5785 5783 5781 5780 5779 5780 5781 5779 5779 5777 5775 5773 5773 5772 5772 5770 5769 5769 5768 5767 5765 5764 5763 5762 5762 5761 5760 5760 5759 5757 5757 5755 5751 5748 5747 5746 5744 5743 5741 5740
5787 5786 5785 5784 5783 5781 5781 5780 5781 5780 5780 5778 5776 5774 5772 5772 5771 5771 5770 5769 5768 5767 5765 5764 5763 5762 5762 5761 5760 5760 5759 5757 5756 5755 5754 5752 5750 5747 5746 5745 5743 5741 5739
5789 5786 5785 5786 5783 5781 5780 5779 5781 5780 5778 5777 5776 5774 5772 5771 5771 5770 5770 5769 5767 5767 5765 5764 5763 5762 5760 5760 5758 5758 5758 5756 5755 5755 5754 5752 5751 5750 5747 5745 5743 5741 5739
5790 5787 5785 5784 5783 5781 5780 5779 5779 5778 5777 5777 5776 5774 5772 5771 5771 5770 5769 5768 5767 5767 5765 5764 5762 5761 5759 5758 5758 5757 5758 5757 5756 5755 5754 5753 5751 5749 5748 5745 5743 5741 5739
5791 5788 5785 5783 5782 5781 5780 5779 5779 5777 5777 5776 5775 5772 5771 5771 5770 5770 5769 5767 5767 5766 5764 5763 5760 5759 5758 5758 5760 5758 5757 5757 5756 5755 5754 5753 5751 5750 5749 5747 5744 5741 5738
5791 5787 5785 5782 5781 5780 5779 5778 5777 5776 5777 5776 5775 5772 5771 5770 5769 5768 5769 5766 5766 5765 5763 5763 5761 5759 5758 5758 5756 5754 5755 5755 5755 5753 5753 5753 5752 5750 5749 5746 5744 5743 5740
5791 5788 5785 5783 5782 5780 5779 5778 5777 5777 5777 5777 5775 5773 5771 5770 5769 5769 5766 5767 5765 5763 5762 5761 5759 5759 5758 5759 5755 5751 5748 5748 5749 5753 5752 5751 5750 5750 5748 5746 5744 5742 5740
5793 5790 5789 5785 5783 5781 5780 5780 5778 5776 5775 5774 5773 5772 5771 5770 5768 5767 5766 5766 5765 5765 5763 5760 5759 5758 5756 5758 5759 5754 5748 5745 5746 5750 5749 5749 5748 5748 5748 5746 5744 5742 5740
5797 5795 5791 5787 5785 5783 5781 5779 5777 5774 5771 5772 5772 5772 5770 5769 5768 5767 5766 5765 5765 5765 5762 5762 5762 5760 5757 5756 5757 5757 5757 5754 5747 5744 5747 5748 5747 5746 5746 5746 5744 5741 5739
5802 5799 5794 5789 5785 5783 5781 5780 5776 5775 5773 5774 5772 5770 5769 5769 5767 5766 5765 5764 5764 5764 5763 5762 5760 5759 5759 5758 5758 5757 5755 5754 5754 5747 5741 5743 5745 5746 5746 5744 5743 5742 5739
5805 5801 5797 5791 5786 5784 5782 5780 5777 5774 5772 5771 5769 5768 5769 5770 5768 5766 5765 5764 5764 5763 5762 5761 5760 5759 5758 5757 5757 5757 5755 5753 5751 5748 5743 5742 5742 5743 5744 5743 5743 5741 5739